sat.trackr.live / text

‹ back to catalog

STARLINK-35813

NORAD 66361 · 2025-254P

PAYLOAD ACTIVE UNKNOWN

§ Identity

Operator
Country
US
Launch date
2025-11-06
Launch site
AFWTR
Launch vehicle
Mass (kg)
RCS (m²)

Purposes: comms

External: N2YO · Heavens-Above · Gunter

§ Orbital elements

Epoch: 2026-09-20T16:22:00.725376Z

Period
94.01 min
Inclination
53.1641°
Eccentricity
0.0000893
Mean motion
15.31719740 rev/d
Perigee alt
470.1 km
Apogee alt
471.3 km
Semi-major
6,848.8 km
B*
5.4664e-4
RAAN
45.0434°
Arg perigee
80.3396°
Mean anomaly
279.7706°
Rev number
4,885

§ Raw data

STARLINK-358131 66361U 25254P   26263.68195284  .00016646  00000+0  54664-3 0  99922 66361  53.1641  45.0434 0000893  80.3396 279.7706 15.31719740 48854

JSON: /api/v1/satellites/66361 · /tle

For live sub-satellite position, see the globe view (requires WebGL).

§ Visibility from observer

Set your observer location to see the next 7 days of passes ≥ 10°. The values pass through the URL so the page stays shareable.

No JS? Fill the form by hand. The geolocation button needs JavaScript.